Location: Unspecified
(0.0000°N, 0.0000°E)
Time: 16:37:32
(UTC+00:00)

deb Delta 126 - Pass Details

Date: 19 February 2026
Orbit: 1501 x 2092 km, 101.9° (Epoch: 8 March)

Event Time Altitude Azimuth Distance (km) Brightness Sun altitude
Rises 05:25:25 0° 339° (NNW) 4,716 ? -11.9°
Reaches altitude 10° 05:29:47 10° 318° (NW) 3,810 ? -10.8°
Maximum altitude 05:34:29 15° 286° (WNW) 3,485 ? -9.6°
Drops below altitude 10° 05:39:26 10° 253° (WSW) 4,026 ? -8.4°
Sets 05:44:22 0° 233° (SW) 5,139 ? -7.2°
